Year,Month,Day,Hour,Minute,Value (Times are PST for insolation in W/m^2)
2009,05,20,00,00,0.00
2009,05,20,00,01,0.00
2009,05,20,00,02,0.00
2009,05,20,00,03,0.00
2009,05,20,00,04,0.00
2009,05,20,00,05,0.00
2009,05,20,00,06,0.00
2009,05,20,00,07,0.00
2009,05,20,00,08,0.00
2009,05,20,00,09,0.00
2009,05,20,00,10,0.00
2009,05,20,00,11,0.00
2009,05,20,00,12,0.00
2009,05,20,00,13,0.00
2009,05,20,00,14,0.00
2009,05,20,00,15,0.00
2009,05,20,00,16,0.00
2009,05,20,00,17,0.00
2009,05,20,00,18,0.00
2009,05,20,00,19,0.00
2009,05,20,00,20,0.00
2009,05,20,00,21,0.00
2009,05,20,00,22,0.00
2009,05,20,00,23,0.00
2009,05,20,00,24,0.00
2009,05,20,00,25,0.00
2009,05,20,00,26,0.00
2009,05,20,00,27,0.00
2009,05,20,00,28,0.00
2009,05,20,00,29,0.00
2009,05,20,00,30,0.00
2009,05,20,00,31,0.00
2009,05,20,00,32,0.00
2009,05,20,00,33,0.00
2009,05,20,00,34,0.00
2009,05,20,00,35,0.00
2009,05,20,00,36,0.00
2009,05,20,00,37,0.00
2009,05,20,00,38,0.00
2009,05,20,00,39,0.00
2009,05,20,00,40,0.00
2009,05,20,00,41,0.00
2009,05,20,00,42,0.00
2009,05,20,00,43,0.00
2009,05,20,00,44,0.00
2009,05,20,00,45,0.00
2009,05,20,00,46,0.00
2009,05,20,00,47,0.00
2009,05,20,00,48,0.00
2009,05,20,00,49,0.00
2009,05,20,00,50,0.00
2009,05,20,00,51,0.00
2009,05,20,00,52,0.00
2009,05,20,00,53,0.00
2009,05,20,00,54,0.00
2009,05,20,00,55,0.00
2009,05,20,00,56,0.00
2009,05,20,00,57,0.00
2009,05,20,00,58,0.00
2009,05,20,00,59,0.00
2009,05,20,01,00,0.00
2009,05,20,01,01,0.00
2009,05,20,01,02,0.00
2009,05,20,01,03,0.00
2009,05,20,01,04,0.00
2009,05,20,01,05,0.00
2009,05,20,01,06,0.00
2009,05,20,01,07,0.00
2009,05,20,01,08,0.00
2009,05,20,01,09,0.00
2009,05,20,01,10,0.00
2009,05,20,01,11,0.00
2009,05,20,01,12,0.00
2009,05,20,01,13,0.00
2009,05,20,01,14,0.00
2009,05,20,01,15,0.00
2009,05,20,01,16,0.00
2009,05,20,01,17,0.00
2009,05,20,01,18,0.00
2009,05,20,01,19,0.00
2009,05,20,01,20,0.00
2009,05,20,01,21,0.00
2009,05,20,01,22,0.00
2009,05,20,01,23,0.00
2009,05,20,01,24,0.00
2009,05,20,01,25,0.00
2009,05,20,01,26,0.00
2009,05,20,01,27,0.00
2009,05,20,01,28,0.00
2009,05,20,01,29,0.00
2009,05,20,01,30,0.00
2009,05,20,01,31,0.00
2009,05,20,01,32,0.00
2009,05,20,01,33,0.00
2009,05,20,01,34,0.00
2009,05,20,01,35,0.00
2009,05,20,01,36,0.00
2009,05,20,01,37,0.00
2009,05,20,01,38,0.00
2009,05,20,01,39,0.00
2009,05,20,01,40,0.00
2009,05,20,01,41,0.00
2009,05,20,01,42,0.00
2009,05,20,01,43,0.00
2009,05,20,01,44,0.00
2009,05,20,01,45,0.00
2009,05,20,01,46,0.00
2009,05,20,01,47,0.00
2009,05,20,01,48,0.00
2009,05,20,01,49,0.00
2009,05,20,01,50,0.00
2009,05,20,01,51,0.00
2009,05,20,01,52,0.00
2009,05,20,01,53,0.00
2009,05,20,01,54,0.00
2009,05,20,01,55,0.00
2009,05,20,01,56,0.00
2009,05,20,01,57,0.00
2009,05,20,01,58,0.00
2009,05,20,01,59,0.00
2009,05,20,02,00,0.00
2009,05,20,02,01,0.00
2009,05,20,02,02,0.00
2009,05,20,02,03,0.00
2009,05,20,02,04,0.00
2009,05,20,02,05,0.00
2009,05,20,02,06,0.00
2009,05,20,02,07,0.00
2009,05,20,02,08,0.00
2009,05,20,02,09,0.00
2009,05,20,02,10,0.00
2009,05,20,02,11,0.00
2009,05,20,02,12,0.00
2009,05,20,02,13,0.00
2009,05,20,02,14,0.00
2009,05,20,02,15,0.00
2009,05,20,02,16,0.00
2009,05,20,02,17,0.00
2009,05,20,02,18,0.00
2009,05,20,02,19,0.00
2009,05,20,02,20,0.00
2009,05,20,02,21,0.00
2009,05,20,02,22,0.00
2009,05,20,02,23,0.00
2009,05,20,02,24,0.00
2009,05,20,02,25,0.00
2009,05,20,02,26,0.00
2009,05,20,02,27,0.00
2009,05,20,02,28,0.00
2009,05,20,02,29,0.00
2009,05,20,02,30,0.00
2009,05,20,02,31,0.00
2009,05,20,02,32,0.00
2009,05,20,02,33,0.00
2009,05,20,02,34,0.00
2009,05,20,02,35,0.00
2009,05,20,02,36,0.00
2009,05,20,02,37,0.00
2009,05,20,02,38,0.00
2009,05,20,02,39,0.00
2009,05,20,02,40,0.00
2009,05,20,02,41,0.00
2009,05,20,02,42,0.00
2009,05,20,02,43,0.00
2009,05,20,02,44,0.00
2009,05,20,02,45,0.00
2009,05,20,02,46,0.00
2009,05,20,02,47,0.00
2009,05,20,02,48,0.00
2009,05,20,02,49,0.00
2009,05,20,02,50,0.00
2009,05,20,02,51,0.00
2009,05,20,02,52,0.00
2009,05,20,02,53,0.00
2009,05,20,02,54,0.00
2009,05,20,02,55,0.00
2009,05,20,02,56,0.00
2009,05,20,02,57,0.00
2009,05,20,02,58,0.00
2009,05,20,02,59,0.00
2009,05,20,03,00,0.00
2009,05,20,03,01,0.00
2009,05,20,03,02,0.00
2009,05,20,03,03,0.00
2009,05,20,03,04,0.00
2009,05,20,03,05,0.00
2009,05,20,03,06,0.00
2009,05,20,03,07,0.00
2009,05,20,03,08,0.00
2009,05,20,03,09,0.00
2009,05,20,03,10,0.00
2009,05,20,03,11,0.00
2009,05,20,03,12,0.00
2009,05,20,03,13,0.00
2009,05,20,03,14,0.00
2009,05,20,03,15,0.00
2009,05,20,03,16,0.00
2009,05,20,03,17,0.00
2009,05,20,03,18,0.00
2009,05,20,03,19,0.00
2009,05,20,03,20,0.00
2009,05,20,03,21,0.00
2009,05,20,03,22,0.00
2009,05,20,03,23,0.00
2009,05,20,03,24,0.00
2009,05,20,03,25,0.00
2009,05,20,03,26,0.00
2009,05,20,03,27,0.00
2009,05,20,03,28,0.00
2009,05,20,03,29,0.00
2009,05,20,03,30,0.00
2009,05,20,03,31,0.00
2009,05,20,03,32,0.00
2009,05,20,03,33,0.00
2009,05,20,03,34,0.00
2009,05,20,03,35,0.00
2009,05,20,03,36,0.00
2009,05,20,03,37,0.00
2009,05,20,03,38,0.00
2009,05,20,03,39,0.00
2009,05,20,03,40,0.00
2009,05,20,03,41,0.00
2009,05,20,03,42,0.00
2009,05,20,03,43,0.00
2009,05,20,03,44,0.00
2009,05,20,03,45,0.00
2009,05,20,03,46,0.00
2009,05,20,03,47,0.00
2009,05,20,03,48,0.00
2009,05,20,03,49,0.00
2009,05,20,03,50,0.00
2009,05,20,03,51,0.00
2009,05,20,03,52,0.00
2009,05,20,03,53,0.00
2009,05,20,03,54,0.00
2009,05,20,03,55,0.00
2009,05,20,03,56,0.00
2009,05,20,03,57,0.00
2009,05,20,03,58,0.00
2009,05,20,03,59,0.00
2009,05,20,04,00,0.00
2009,05,20,04,01,0.00
2009,05,20,04,02,0.00
2009,05,20,04,03,0.00
2009,05,20,04,04,0.00
2009,05,20,04,05,0.00
2009,05,20,04,06,0.00
2009,05,20,04,07,0.00
2009,05,20,04,08,0.00
2009,05,20,04,09,0.00
2009,05,20,04,10,0.00
2009,05,20,04,11,0.00
2009,05,20,04,12,0.00
2009,05,20,04,13,0.00
2009,05,20,04,14,0.00
2009,05,20,04,15,0.00
2009,05,20,04,16,0.00
2009,05,20,04,17,0.00
2009,05,20,04,18,0.00
2009,05,20,04,19,0.00
2009,05,20,04,20,0.00
2009,05,20,04,21,0.00
2009,05,20,04,22,0.00
2009,05,20,04,23,0.00
2009,05,20,04,24,0.00
2009,05,20,04,25,0.00
2009,05,20,04,26,0.00
2009,05,20,04,27,0.00
2009,05,20,04,28,0.00
2009,05,20,04,29,0.00
2009,05,20,04,30,0.00
2009,05,20,04,31,0.00
2009,05,20,04,32,0.00
2009,05,20,04,33,0.00
2009,05,20,04,34,0.00
2009,05,20,04,35,0.00
2009,05,20,04,36,0.00
2009,05,20,04,37,0.00
2009,05,20,04,38,0.00
2009,05,20,04,39,0.00
2009,05,20,04,40,0.00
2009,05,20,04,41,0.00
2009,05,20,04,42,0.00
2009,05,20,04,43,0.00
2009,05,20,04,44,0.00
2009,05,20,04,45,0.00
2009,05,20,04,46,0.00
2009,05,20,04,47,0.00
2009,05,20,04,48,0.00
2009,05,20,04,49,0.00
2009,05,20,04,50,0.00
2009,05,20,04,51,0.00
2009,05,20,04,52,0.00
2009,05,20,04,53,0.00
2009,05,20,04,54,0.00
2009,05,20,04,55,0.00
2009,05,20,04,56,0.00
2009,05,20,04,57,0.00
2009,05,20,04,58,0.00
2009,05,20,04,59,0.00
2009,05,20,05,00,0.00
2009,05,20,05,01,0.00
2009,05,20,05,02,0.00
2009,05,20,05,03,0.00
2009,05,20,05,04,0.00
2009,05,20,05,05,0.00
2009,05,20,05,06,0.00
2009,05,20,05,07,0.00
2009,05,20,05,08,0.00
2009,05,20,05,09,0.00
2009,05,20,05,10,0.00
2009,05,20,05,11,0.00
2009,05,20,05,12,0.00
2009,05,20,05,13,0.00
2009,05,20,05,14,0.00
2009,05,20,05,15,0.00
2009,05,20,05,16,0.00
2009,05,20,05,17,0.00
2009,05,20,05,18,0.00
2009,05,20,05,19,0.00
2009,05,20,05,20,0.00
2009,05,20,05,21,0.00
2009,05,20,05,22,0.00
2009,05,20,05,23,0.00
2009,05,20,05,24,0.00
2009,05,20,05,25,0.00
2009,05,20,05,26,0.00
2009,05,20,05,27,0.00
2009,05,20,05,28,0.00
2009,05,20,05,29,0.00
2009,05,20,05,30,0.00
2009,05,20,05,31,0.00
2009,05,20,05,32,0.00
2009,05,20,05,33,0.00
2009,05,20,05,34,0.00
2009,05,20,05,35,0.00
2009,05,20,05,36,0.00
2009,05,20,05,37,0.00
2009,05,20,05,38,0.00
2009,05,20,05,39,3.50
2009,05,20,05,40,5.00
2009,05,20,05,41,5.00
2009,05,20,05,42,5.00
2009,05,20,05,43,5.00
2009,05,20,05,44,6.20
2009,05,20,05,45,7.00
2009,05,20,05,46,8.80
2009,05,20,05,47,9.00
2009,05,20,05,48,9.50
2009,05,20,05,49,11.00
2009,05,20,05,50,11.60
2009,05,20,05,51,12.00
2009,05,20,05,52,12.00
2009,05,20,05,53,14.00
2009,05,20,05,54,14.50
2009,05,20,05,55,16.00
2009,05,20,05,56,17.20
2009,05,20,05,57,18.80
2009,05,20,05,58,19.00
2009,05,20,05,59,19.00
2009,05,20,06,00,19.50
2009,05,20,06,01,21.00
2009,05,20,06,02,21.00
2009,05,20,06,03,21.00
2009,05,20,06,04,21.00
2009,05,20,06,05,21.00
2009,05,20,06,06,21.00
2009,05,20,06,07,21.00
2009,05,20,06,08,21.00
2009,05,20,06,09,21.00
2009,05,20,06,10,23.00
2009,05,20,06,11,23.00
2009,05,20,06,12,23.00
2009,05,20,06,13,23.00
2009,05,20,06,14,23.00
2009,05,20,06,15,24.80
2009,05,20,06,16,25.00
2009,05,20,06,17,25.00
2009,05,20,06,18,25.00
2009,05,20,06,19,25.00
2009,05,20,06,20,25.00
2009,05,20,06,21,25.00
2009,05,20,06,22,25.00
2009,05,20,06,23,25.20
2009,05,20,06,24,26.00
2009,05,20,06,25,26.00
2009,05,20,06,26,26.00
2009,05,20,06,27,26.00
2009,05,20,06,28,26.00
2009,05,20,06,29,26.50
2009,05,20,06,30,28.00
2009,05,20,06,31,28.00
2009,05,20,06,32,28.00
2009,05,20,06,33,28.00
2009,05,20,06,34,30.00
2009,05,20,06,35,30.00
2009,05,20,06,36,30.00
2009,05,20,06,37,30.00
2009,05,20,06,38,30.00
2009,05,20,06,39,31.90
2009,05,20,06,40,32.00
2009,05,20,06,41,32.00
2009,05,20,06,42,32.50
2009,05,20,06,43,33.00
2009,05,20,06,44,33.00
2009,05,20,06,45,33.00
2009,05,20,06,46,33.30
2009,05,20,06,47,35.00
2009,05,20,06,48,35.00
2009,05,20,06,49,35.00
2009,05,20,06,50,36.50
2009,05,20,06,51,37.00
2009,05,20,06,52,37.00
2009,05,20,06,53,37.00
2009,05,20,06,54,39.60
2009,05,20,06,55,49.80
2009,05,20,06,56,53.80
2009,05,20,06,57,91.70
2009,05,20,06,58,157.60
2009,05,20,06,59,179.70
2009,05,20,07,00,182.10
2009,05,20,07,01,185.10
2009,05,20,07,02,187.80
2009,05,20,07,03,190.10
2009,05,20,07,04,192.20
2009,05,20,07,05,194.30
2009,05,20,07,06,198.20
2009,05,20,07,07,199.00
2009,05,20,07,08,199.00
2009,05,20,07,09,199.00
2009,05,20,07,10,199.00
2009,05,20,07,11,199.00
2009,05,20,07,12,199.00
2009,05,20,07,13,199.00
2009,05,20,07,14,217.50
2009,05,20,07,15,221.20
2009,05,20,07,16,224.00
2009,05,20,07,17,227.80
2009,05,20,07,18,230.80
2009,05,20,07,19,233.50
2009,05,20,07,20,235.90
2009,05,20,07,21,239.00
2009,05,20,07,22,241.60
2009,05,20,07,23,244.40
2009,05,20,07,24,247.10
2009,05,20,07,25,250.50
2009,05,20,07,26,252.90
2009,05,20,07,27,257.20
2009,05,20,07,28,258.60
2009,05,20,07,29,261.60
2009,05,20,07,30,264.60
2009,05,20,07,31,268.30
2009,05,20,07,32,271.00
2009,05,20,07,33,272.60
2009,05,20,07,34,276.70
2009,05,20,07,35,278.50
2009,05,20,07,36,281.40
2009,05,20,07,37,284.60
2009,05,20,07,38,287.20
2009,05,20,07,39,290.70
2009,05,20,07,40,294.30
2009,05,20,07,41,296.10
2009,05,20,07,42,297.00
2009,05,20,07,43,300.50
2009,05,20,07,44,304.00
2009,05,20,07,45,305.00
2009,05,20,07,46,309.70
2009,05,20,07,47,312.80
2009,05,20,07,48,315.70
2009,05,20,07,49,319.00
2009,05,20,07,50,321.90
2009,05,20,07,51,323.40
2009,05,20,07,52,326.60
2009,05,20,07,53,329.60
2009,05,20,07,54,332.60
2009,05,20,07,55,337.50
2009,05,20,07,56,339.10
2009,05,20,07,57,341.90
2009,05,20,07,58,346.00
2009,05,20,07,59,348.00
2009,05,20,08,00,349.30
2009,05,20,08,01,351.90
2009,05,20,08,02,355.40
2009,05,20,08,03,357.90
2009,05,20,08,04,360.90
2009,05,20,08,05,364.60
2009,05,20,08,06,366.70
2009,05,20,08,07,370.80
2009,05,20,08,08,373.20
2009,05,20,08,09,376.60
2009,05,20,08,10,378.80
2009,05,20,08,11,381.80
2009,05,20,08,12,383.00
2009,05,20,08,13,387.00
2009,05,20,08,14,388.80
2009,05,20,08,15,393.60
2009,05,20,08,16,397.60
2009,05,20,08,17,400.20
2009,05,20,08,18,402.70
2009,05,20,08,19,406.00
2009,05,20,08,20,410.20
2009,05,20,08,21,412.40
2009,05,20,08,22,416.10
2009,05,20,08,23,417.00
2009,05,20,08,24,423.20
2009,05,20,08,25,427.30
2009,05,20,08,26,433.40
2009,05,20,08,27,440.50
2009,05,20,08,28,450.30
2009,05,20,08,29,389.10
2009,05,20,08,30,362.00
2009,05,20,08,31,493.60
2009,05,20,08,32,520.00
2009,05,20,08,33,499.70
2009,05,20,08,34,499.60
2009,05,20,08,35,526.00
2009,05,20,08,36,526.00
2009,05,20,08,37,529.30
2009,05,20,08,38,541.90
2009,05,20,08,39,513.00
2009,05,20,08,40,513.00
2009,05,20,08,41,513.00
2009,05,20,08,42,307.80
2009,05,20,08,43,320.90
2009,05,20,08,44,515.00
2009,05,20,08,45,381.80
2009,05,20,08,46,185.40
2009,05,20,08,47,154.20
2009,05,20,08,48,151.10
2009,05,20,08,49,162.40
2009,05,20,08,50,167.10
2009,05,20,08,51,188.00
2009,05,20,08,52,245.50
2009,05,20,08,53,220.60
2009,05,20,08,54,202.00
2009,05,20,08,55,596.90
2009,05,20,08,56,588.70
2009,05,20,08,57,579.90
2009,05,20,08,58,580.40
2009,05,20,08,59,580.40
2009,05,20,09,00,587.10
2009,05,20,09,01,589.00
2009,05,20,09,02,589.80
2009,05,20,09,03,592.60
2009,05,20,09,04,599.10
2009,05,20,09,05,605.40
2009,05,20,09,06,608.00
2009,05,20,09,07,609.60
2009,05,20,09,08,617.90
2009,05,20,09,09,625.90
2009,05,20,09,10,634.40
2009,05,20,09,11,641.30
2009,05,20,09,12,649.40
2009,05,20,09,13,657.40
2009,05,20,09,14,662.20
2009,05,20,09,15,667.50
2009,05,20,09,16,680.90
2009,05,20,09,17,684.00
2009,05,20,09,18,700.90
2009,05,20,09,19,709.50
2009,05,20,09,20,716.90
2009,05,20,09,21,723.90
2009,05,20,09,22,729.20
2009,05,20,09,23,736.60
2009,05,20,09,24,737.50
2009,05,20,09,25,740.00
2009,05,20,09,26,737.80
2009,05,20,09,27,736.30
2009,05,20,09,28,742.80
2009,05,20,09,29,744.00
2009,05,20,09,30,649.10
2009,05,20,09,31,212.70
2009,05,20,09,32,217.50
2009,05,20,09,33,245.00
2009,05,20,09,34,231.90
2009,05,20,09,35,220.00
2009,05,20,09,36,226.10
2009,05,20,09,37,233.80
2009,05,20,09,38,240.70
2009,05,20,09,39,247.60
2009,05,20,09,40,250.00
2009,05,20,09,41,250.10
2009,05,20,09,42,251.00
2009,05,20,09,43,251.00
2009,05,20,09,44,250.50
2009,05,20,09,45,250.00
2009,05,20,09,46,252.20
2009,05,20,09,47,261.20
2009,05,20,09,48,281.00
2009,05,20,09,49,281.00
2009,05,20,09,50,281.00
2009,05,20,09,51,281.00
2009,05,20,09,52,281.00
2009,05,20,09,53,278.00
2009,05,20,09,54,220.30
2009,05,20,09,55,218.00
2009,05,20,09,56,219.50
2009,05,20,09,57,223.90
2009,05,20,09,58,231.60
2009,05,20,09,59,239.60
2009,05,20,10,00,244.00
2009,05,20,10,01,242.80
2009,05,20,10,02,239.00
2009,05,20,10,03,236.20
2009,05,20,10,04,234.10
2009,05,20,10,05,236.50
2009,05,20,10,06,240.50
2009,05,20,10,07,243.50
2009,05,20,10,08,240.80
2009,05,20,10,09,237.40
2009,05,20,10,10,236.10
2009,05,20,10,11,231.70
2009,05,20,10,12,229.70
2009,05,20,10,13,229.40
2009,05,20,10,14,230.00
2009,05,20,10,15,231.60
2009,05,20,10,16,235.40
2009,05,20,10,17,241.90
2009,05,20,10,18,247.40
2009,05,20,10,19,250.50
2009,05,20,10,20,252.30
2009,05,20,10,21,256.00
2009,05,20,10,22,260.00
2009,05,20,10,23,260.50
2009,05,20,10,24,263.20
2009,05,20,10,25,268.50
2009,05,20,10,26,275.50
2009,05,20,10,27,285.90
2009,05,20,10,28,294.40
2009,05,20,10,29,302.40
2009,05,20,10,30,310.10
2009,05,20,10,31,314.20
2009,05,20,10,32,315.00
2009,05,20,10,33,315.00
2009,05,20,10,34,315.40
2009,05,20,10,35,318.50
2009,05,20,10,36,321.00
2009,05,20,10,37,323.00
2009,05,20,10,38,323.00
2009,05,20,10,39,322.10
2009,05,20,10,40,322.00
2009,05,20,10,41,322.00
2009,05,20,10,42,324.40
2009,05,20,10,43,331.50
2009,05,20,10,44,339.40
2009,05,20,10,45,347.60
2009,05,20,10,46,356.30
2009,05,20,10,47,368.90
2009,05,20,10,48,382.40
2009,05,20,10,49,426.30
2009,05,20,10,50,480.70
2009,05,20,10,51,408.50
2009,05,20,10,52,397.40
2009,05,20,10,53,396.50
2009,05,20,10,54,394.50
2009,05,20,10,55,398.30
2009,05,20,10,56,406.40
2009,05,20,10,57,422.00
2009,05,20,10,58,419.50
2009,05,20,10,59,418.80
2009,05,20,11,00,419.90
2009,05,20,11,01,389.80
2009,05,20,11,02,361.90
2009,05,20,11,03,339.80
2009,05,20,11,04,320.90
2009,05,20,11,05,307.50
2009,05,20,11,06,292.00
2009,05,20,11,07,266.80
2009,05,20,11,08,243.20
2009,05,20,11,09,220.90
2009,05,20,11,10,190.10
2009,05,20,11,11,169.10
2009,05,20,11,12,156.90
2009,05,20,11,13,150.20
2009,05,20,11,14,146.80
2009,05,20,11,15,145.80
2009,05,20,11,16,144.50
2009,05,20,11,17,147.20
2009,05,20,11,18,150.00
2009,05,20,11,19,149.50
2009,05,20,11,20,150.60
2009,05,20,11,21,159.50
2009,05,20,11,22,173.80
2009,05,20,11,23,188.60
2009,05,20,11,24,207.20
2009,05,20,11,25,224.90
2009,05,20,11,26,245.10
2009,05,20,11,27,264.20
2009,05,20,11,28,288.90
2009,05,20,11,29,322.80
2009,05,20,11,30,345.00
2009,05,20,11,31,345.00
2009,05,20,11,32,345.00
2009,05,20,11,33,353.50
2009,05,20,11,34,386.50
2009,05,20,11,35,348.30
2009,05,20,11,36,356.10
2009,05,20,11,37,338.00
2009,05,20,11,38,308.50
2009,05,20,11,39,297.80
2009,05,20,11,40,288.10
2009,05,20,11,41,281.00
2009,05,20,11,42,281.00
2009,05,20,11,43,248.10
2009,05,20,11,44,231.70
2009,05,20,11,45,226.30
2009,05,20,11,46,221.10
2009,05,20,11,47,215.80
2009,05,20,11,48,213.30
2009,05,20,11,49,213.80
2009,05,20,11,50,220.30
2009,05,20,11,51,226.40
2009,05,20,11,52,235.20
2009,05,20,11,53,244.10
2009,05,20,11,54,254.40
2009,05,20,11,55,264.50
2009,05,20,11,56,278.70
2009,05,20,11,57,293.80
2009,05,20,11,58,312.00
2009,05,20,11,59,332.40
2009,05,20,12,00,351.20
2009,05,20,12,01,379.50
2009,05,20,12,02,393.20
2009,05,20,12,03,413.70
2009,05,20,12,04,396.70
2009,05,20,12,05,358.50
2009,05,20,12,06,322.80
2009,05,20,12,07,311.50
2009,05,20,12,08,298.90
2009,05,20,12,09,290.50
2009,05,20,12,10,287.00
2009,05,20,12,11,283.00
2009,05,20,12,12,278.50
2009,05,20,12,13,276.00
2009,05,20,12,14,276.00
2009,05,20,12,15,276.00
2009,05,20,12,16,276.00
2009,05,20,12,17,277.30
2009,05,20,12,18,280.50
2009,05,20,12,19,283.00
2009,05,20,12,20,280.70
2009,05,20,12,21,277.90
2009,05,20,12,22,273.90
2009,05,20,12,23,271.40
2009,05,20,12,24,271.80
2009,05,20,12,25,278.00
2009,05,20,12,26,277.20
2009,05,20,12,27,273.20
2009,05,20,12,28,274.10
2009,05,20,12,29,280.20
2009,05,20,12,30,289.20
2009,05,20,12,31,295.40
2009,05,20,12,32,302.60
2009,05,20,12,33,312.90
2009,05,20,12,34,325.00
2009,05,20,12,35,336.40
2009,05,20,12,36,399.90
2009,05,20,12,37,386.70
2009,05,20,12,38,377.10
2009,05,20,12,39,413.00
2009,05,20,12,40,413.00
2009,05,20,12,41,349.50
2009,05,20,12,42,315.90
2009,05,20,12,43,299.40
2009,05,20,12,44,283.40
2009,05,20,12,45,269.30
2009,05,20,12,46,260.50
2009,05,20,12,47,259.50
2009,05,20,12,48,263.80
2009,05,20,12,49,273.50
2009,05,20,12,50,285.10
2009,05,20,12,51,263.40
2009,05,20,12,52,250.50
2009,05,20,12,53,237.50
2009,05,20,12,54,221.80
2009,05,20,12,55,219.50
2009,05,20,12,56,209.60
2009,05,20,12,57,207.00
2009,05,20,12,58,208.10
2009,05,20,12,59,211.80
2009,05,20,13,00,220.30
2009,05,20,13,01,226.60
2009,05,20,13,02,237.20
2009,05,20,13,03,246.70
2009,05,20,13,04,250.00
2009,05,20,13,05,262.40
2009,05,20,13,06,270.40
2009,05,20,13,07,276.50
2009,05,20,13,08,279.70
2009,05,20,13,09,286.00
2009,05,20,13,10,287.90
2009,05,20,13,11,284.00
2009,05,20,13,12,283.40
2009,05,20,13,13,287.70
2009,05,20,13,14,290.80
2009,05,20,13,15,292.00
2009,05,20,13,16,296.90
2009,05,20,13,17,305.20
2009,05,20,13,18,315.50
2009,05,20,13,19,325.60
2009,05,20,13,20,346.40
2009,05,20,13,21,364.00
2009,05,20,13,22,364.00
2009,05,20,13,23,364.00
2009,05,20,13,24,365.10
2009,05,20,13,25,373.00
2009,05,20,13,26,369.70
2009,05,20,13,27,361.00
2009,05,20,13,28,350.00
2009,05,20,13,29,339.50
2009,05,20,13,30,331.40
2009,05,20,13,31,325.80
2009,05,20,13,32,318.70
2009,05,20,13,33,307.90
2009,05,20,13,34,298.20
2009,05,20,13,35,295.30
2009,05,20,13,36,296.90
2009,05,20,13,37,309.50
2009,05,20,13,38,298.60
2009,05,20,13,39,295.00
2009,05,20,13,40,294.20
2009,05,20,13,41,290.00
2009,05,20,13,42,284.30
2009,05,20,13,43,281.00
2009,05,20,13,44,283.10
2009,05,20,13,45,291.40
2009,05,20,13,46,305.50
2009,05,20,13,47,339.30
2009,05,20,13,48,337.80
2009,05,20,13,49,331.30
2009,05,20,13,50,330.00
2009,05,20,13,51,331.40
2009,05,20,13,52,339.50
2009,05,20,13,53,383.40
2009,05,20,13,54,396.00
2009,05,20,13,55,439.80
2009,05,20,13,56,468.00
2009,05,20,13,57,468.00
2009,05,20,13,58,1131.50
2009,05,20,13,59,1206.00
2009,05,20,14,00,1206.00
2009,05,20,14,01,841.20
2009,05,20,14,02,304.70
2009,05,20,14,03,281.80
2009,05,20,14,04,265.80
2009,05,20,14,05,257.40
2009,05,20,14,06,253.60
2009,05,20,14,07,255.90
2009,05,20,14,08,257.00
2009,05,20,14,09,257.00
2009,05,20,14,10,253.80
2009,05,20,14,11,244.90
2009,05,20,14,12,233.40
2009,05,20,14,13,224.20
2009,05,20,14,14,218.10
2009,05,20,14,15,214.50
2009,05,20,14,16,213.20
2009,05,20,14,17,213.10
2009,05,20,14,18,215.50
2009,05,20,14,19,220.50
2009,05,20,14,20,222.30
2009,05,20,14,21,226.30
2009,05,20,14,22,232.00
2009,05,20,14,23,238.10
2009,05,20,14,24,244.70
2009,05,20,14,25,246.00
2009,05,20,14,26,244.70
2009,05,20,14,27,245.40
2009,05,20,14,28,250.10
2009,05,20,14,29,251.70
2009,05,20,14,30,258.50
2009,05,20,14,31,273.00
2009,05,20,14,32,307.30
2009,05,20,14,33,327.00
2009,05,20,14,34,327.00
2009,05,20,14,35,322.00
2009,05,20,14,36,293.10
2009,05,20,14,37,270.80
2009,05,20,14,38,262.90
2009,05,20,14,39,258.80
2009,05,20,14,40,256.80
2009,05,20,14,41,255.00
2009,05,20,14,42,255.80
2009,05,20,14,43,257.60
2009,05,20,14,44,257.20
2009,05,20,14,45,250.40
2009,05,20,14,46,251.90
2009,05,20,14,47,281.00
2009,05,20,14,48,281.00
2009,05,20,14,49,286.30
2009,05,20,14,50,283.10
2009,05,20,14,51,264.90
2009,05,20,14,52,249.30
2009,05,20,14,53,237.50
2009,05,20,14,54,223.80
2009,05,20,14,55,216.70
2009,05,20,14,56,217.50
2009,05,20,14,57,220.40
2009,05,20,14,58,224.20
2009,05,20,14,59,231.40
2009,05,20,15,00,233.20
2009,05,20,15,01,228.80
2009,05,20,15,02,216.30
2009,05,20,15,03,205.60
2009,05,20,15,04,199.50
2009,05,20,15,05,196.40
2009,05,20,15,06,195.00
2009,05,20,15,07,195.00
2009,05,20,15,08,196.60
2009,05,20,15,09,199.60
2009,05,20,15,10,202.90
2009,05,20,15,11,207.10
2009,05,20,15,12,214.80
2009,05,20,15,13,234.40
2009,05,20,15,14,250.20
2009,05,20,15,15,268.10
2009,05,20,15,16,288.30
2009,05,20,15,17,304.80
2009,05,20,15,18,310.60
2009,05,20,15,19,301.90
2009,05,20,15,20,292.80
2009,05,20,15,21,288.20
2009,05,20,15,22,286.60
2009,05,20,15,23,292.00
2009,05,20,15,24,292.00
2009,05,20,15,25,292.00
2009,05,20,15,26,320.00
2009,05,20,15,27,314.80
2009,05,20,15,28,301.30
2009,05,20,15,29,285.20
2009,05,20,15,30,271.50
2009,05,20,15,31,260.10
2009,05,20,15,32,248.60
2009,05,20,15,33,235.20
2009,05,20,15,34,228.50
2009,05,20,15,35,228.20
2009,05,20,15,36,233.90
2009,05,20,15,37,240.90
2009,05,20,15,38,249.50
2009,05,20,15,39,257.00
2009,05,20,15,40,253.70
2009,05,20,15,41,239.60
2009,05,20,15,42,226.90
2009,05,20,15,43,215.50
2009,05,20,15,44,211.00
2009,05,20,15,45,207.00
2009,05,20,15,46,206.60
2009,05,20,15,47,204.20
2009,05,20,15,48,200.70
2009,05,20,15,49,197.90
2009,05,20,15,50,197.20
2009,05,20,15,51,200.40
2009,05,20,15,52,203.70
2009,05,20,15,53,209.10
2009,05,20,15,54,212.80
2009,05,20,15,55,220.20
2009,05,20,15,56,230.60
2009,05,20,15,57,243.00
2009,05,20,15,58,251.00
2009,05,20,15,59,259.50
2009,05,20,16,00,265.80
2009,05,20,16,01,257.90
2009,05,20,16,02,246.90
2009,05,20,16,03,238.40
2009,05,20,16,04,234.40
2009,05,20,16,05,231.00
2009,05,20,16,06,231.50
2009,05,20,16,07,235.50
2009,05,20,16,08,236.80
2009,05,20,16,09,237.90
2009,05,20,16,10,244.40
2009,05,20,16,11,244.20
2009,05,20,16,12,243.00
2009,05,20,16,13,243.00
2009,05,20,16,14,264.60
2009,05,20,16,15,260.80
2009,05,20,16,16,254.20
2009,05,20,16,17,248.70
2009,05,20,16,18,246.50
2009,05,20,16,19,244.40
2009,05,20,16,20,246.40
2009,05,20,16,21,248.60
2009,05,20,16,22,248.10
2009,05,20,16,23,244.00
2009,05,20,16,24,239.70
2009,05,20,16,25,241.10
2009,05,20,16,26,243.00
2009,05,20,16,27,243.00
2009,05,20,16,28,244.60
2009,05,20,16,29,255.10
2009,05,20,16,30,268.40
2009,05,20,16,31,259.00
2009,05,20,16,32,239.20
2009,05,20,16,33,224.50
2009,05,20,16,34,218.90
2009,05,20,16,35,216.60
2009,05,20,16,36,216.00
2009,05,20,16,37,215.00
2009,05,20,16,38,232.00
2009,05,20,16,39,232.00
2009,05,20,16,40,201.30
2009,05,20,16,41,167.60
2009,05,20,16,42,160.60
2009,05,20,16,43,154.30
2009,05,20,16,44,148.20
2009,05,20,16,45,146.00
2009,05,20,16,46,147.80
2009,05,20,16,47,154.10
2009,05,20,16,48,166.40
2009,05,20,16,49,180.80
2009,05,20,16,50,214.00
2009,05,20,16,51,290.50
2009,05,20,16,52,336.00
2009,05,20,16,53,336.00
2009,05,20,16,54,336.00
2009,05,20,16,55,707.00
2009,05,20,16,56,568.50
2009,05,20,16,57,236.00
2009,05,20,16,58,236.00
2009,05,20,16,59,205.50
2009,05,20,17,00,195.20
2009,05,20,17,01,201.50
2009,05,20,17,02,200.80
2009,05,20,17,03,204.00
2009,05,20,17,04,204.00
2009,05,20,17,05,242.70
2009,05,20,17,06,213.60
2009,05,20,17,07,161.30